Flag for Sweden Weather past 2 weeks in Helsingborg, Sweden

Now
63 °F

Passing clouds.


Feels Like: 63 °F
Forecast: 54 / 62 °F
Wind: 13 mph from Southwest

Location: Ljungbyhed

Current Time: Aug 23, 2014 at 5:42:51 PM

Latest Report: Aug 23, 2014 at 5:20 PM


Visibility: N/A

Pressure: 29.74 "Hg

Humidity: 59%

Dew point: 48 °F

Location of HelsingborgLocation

Historic Weather in Helsingborg — Graph

°F

Helsingborg temperature yesterday

Maximum temperature yesterday: 64 °F (at 2:20 PM)
Minimum temperature yesterday: 50 °F (at 6:20 AM)
Average temperature yesterday: 57 °F

Past Weeks' High & Low Weather Summary

 TemperatureHumidityPressure
High75 °F (Aug 11, 1:20 PM)100% (Aug 23, 12:20 AM)29.98 "Hg (Aug 23, 12:20 AM)
Low50 °F (Aug 22, 6:20 AM)38% (Aug 13, 2:20 PM)29.36 "Hg (Aug 18, 12:20 PM)
Average60 °F70%29.70 "Hg
* Reported Aug 8 4:20 PM — Aug 23 4:50 PM, Helsingborg, Weather by CustomWeather, © 2014

Note: Actual official high and low records may vary slightly from our data, if they occured in-between our weather recording intervals... More about our weather records

Advertising

Helsingborg weather history for previous 24 hours

 ConditionsComfort  
Time TempWeatherWind HumidityBarometerVisibility
4:50 PM
Aug 23
59 °FPassing clouds.10 mph72%29.74 "HgN/A
4:20 PM63 °FLight rain. Passing clouds.15 mph64%29.74 "HgN/A
3:50 PM63 °FPassing clouds.13 mph59%29.74 "HgN/A
3:20 PM63 °FMild.14 mph59%29.74 "HgN/A
2:50 PM61 °FPassing clouds.13 mph63%29.74 "HgN/A
2:20 PM63 °FPassing clouds.9 mph64%29.74 "HgN/A
1:50 PM61 °FPassing clouds.12 mph63%29.74 "HgN/A
1:20 PM61 °FBroken clouds.9 mph72%29.74 "HgN/A
12:50 PM59 °FBroken clouds.12 mph68%29.74 "HgN/A
12:20 PM61 °FCool.12 mph77%29.71 "HgN/A
11:50 AM55 °FPassing clouds.9 mph88%29.71 "HgN/A
11:20 AM61 °FScattered clouds.13 mph72%29.71 "HgN/A
10:50 AM57 °FScattered clouds.12 mph77%29.71 "HgN/A
10:20 AM59 °FPassing clouds.13 mph77%29.71 "HgN/A
9:50 AM59 °FPassing clouds.12 mph82%29.71 "HgN/A
9:20 AM57 °FMore clouds than sun.10 mph88%29.68 "HgN/A
8:50 AM57 °FBroken clouds.10 mph88%29.68 "HgN/A
8:20 AM55 °FPartly sunny.9 mph88%29.68 "HgN/A
7:50 AM55 °FPassing clouds.10 mph88%29.68 "HgN/A
7:20 AM54 °FBroken clouds.9 mph94%29.68 "HgN/A
6:50 AM54 °FPartly cloudy.9 mph94%29.68 "HgN/A
6:20 AM54 °FPartly cloudy.8 mph100%29.68 "HgN/A
5:50 AM54 °FPartly cloudy.7 mph100%29.65 "HgN/A
5:20 AM54 °FPassing clouds.6 mph94%29.68 "HgN/A
4:50 AM54 °FRain. Partly cloudy.3 mph100%29.68 "Hg5 mi
4:20 AM54 °FRain. Partly cloudy.3 mph100%29.68 "Hg2 mi
3:50 AM54 °FPartly cloudy.6 mph94%29.68 "HgN/A
3:20 AM52 °FFog.3 mph100%29.68 "Hg6 mi
2:50 AM52 °FPartly cloudy.5 mph100%29.68 "HgN/A
2:20 AM52 °FOvercast.6 mph100%29.68 "HgN/A
1:50 AM52 °FPassing clouds.6 mph100%29.68 "HgN/A
1:20 AM50 °FFog.6 mph100%29.71 "Hg3 mi
12:50 AM52 °FPassing clouds.6 mph94%29.71 "HgN/A
12:20 AM52 °FPassing clouds.7 mph100%29.71 "HgN/A
11:50 PM
Aug 22
54 °FPassing clouds.7 mph94%29.74 "HgN/A
11:20 PM54 °FPassing clouds.5 mph94%29.74 "HgN/A
10:50 PM54 °FPassing clouds.6 mph94%29.74 "HgN/A
10:20 PM54 °FPassing clouds.8 mph94%29.74 "HgN/A
9:50 PM55 °FPartly cloudy.8 mph88%29.74 "HgN/A
9:20 PM54 °FPartly sunny.6 mph94%29.74 "HgN/A
8:50 PM54 °FPartly sunny.7 mph94%29.74 "HgN/A
8:20 PM54 °FDrizzle. Cloudy.8 mph94%29.74 "HgN/A
7:50 PM55 °FRain. Partly sunny.12 mph82%29.77 "HgN/A
7:20 PM59 °FScattered clouds.8 mph77%29.74 "HgN/A
6:50 PM61 °FScattered clouds.9 mph68%29.74 "HgN/A
6:20 PM61 °FScattered clouds.13 mph68%29.74 "HgN/A
5:50 PM61 °FScattered clouds.13 mph68%29.74 "HgN/A
5:20 PM61 °FScattered clouds.15 mph68%29.77 "HgN/A
Weather by CustomWeather, © 2014

See weather overviewHow to use our weather pages